Hourly Data Report for March 21, 2017

All times are specified in Local Standard Time (LST). Add 1 hour to adjust for Daylight Saving Time where and when it is observed.

TORONTO CITY
ONTARIO

43°40'00.000" N
79°24'00.000" W
112.50 m
6158355
71508
XTO

Download Data

Hourly Data (March 2017)
Hourly Data Report for March 21, 2017
TIME Temp Definition
°C
Dew Point Definition
°C
Rel Hum Definition
%
Wind Dir Definition
10's deg

Wind Spd Definition
km/h
Visibility Definition
km
Stn Press Definition
kPa
Hmdx Definition


Wind Chill Definition


Weather Definition


00:00 4.9 1.3 77 LegendMM LegendMM   100.16     LegendNANA
01:00 5.0 1.3 77 LegendMM LegendMM   100.12     LegendNANA
02:00 4.9 1.5 79 LegendMM LegendMM   100.10     LegendNANA
03:00 4.9 1.5 79 LegendMM LegendMM   100.08     LegendNANA
04:00 5.2 1.8 79 LegendMM LegendMM   100.04     LegendNANA
05:00 4.6 1.1 78 LegendMM LegendMM   100.07     LegendNANA
06:00 3.6 1.0 83 LegendMM LegendMM   100.07     LegendNANA
07:00 3.1 0.6 84 LegendMM LegendMM   100.07     LegendNANA
08:00 5.3 0.8 73 LegendMM LegendMM   100.07     LegendNANA
09:00 7.3 -0.1 59 LegendMM LegendMM   100.06     LegendNANA
10:00 9.5 -0.8 49 LegendMM LegendMM   100.05     LegendNANA
11:00 11.4 -11.3 19 LegendMM LegendMM   100.02     LegendNANA
12:00 11.6 -13.6 16 LegendMM LegendMM   99.98     LegendNANA
13:00 12.8 -11.0 18 LegendMM LegendMM   99.90     LegendNANA
14:00 12.5 -11.2 18 LegendMM LegendMM   99.82     LegendNANA
15:00 11.8 -8.1 24 LegendMM LegendMM   99.76     LegendNANA
16:00 10.1 -5.5 33 LegendMM LegendMM   99.84     LegendNANA
17:00 7.1 -6.6 37 LegendMM LegendMM   99.96     LegendNANA
18:00 5.1 -6.6 43 LegendMM LegendMM   100.06     LegendNANA
19:00 3.6 -5.7 51 LegendMM LegendMM   100.14     LegendNANA
20:00 2.5 -4.3 61 LegendMM LegendMM   100.23     LegendNANA
21:00 1.3 -4.6 65 LegendMM LegendMM   100.31     LegendNANA
22:00 0.9 -8.4 50 LegendMM LegendMM   100.38     LegendNANA
23:00 -0.3 -10.5 46 LegendMM LegendMM   100.48     LegendNANA

Notes on Data Quality.

Legend

  • E = Estimated
  • M = Missing
  • NA = Not Available
Date modified: